Tracking 18624 objects as of 1-May-2017
HD Live streaming from Space Station
objects crossing your sky now

INTELSAT 705

Track INTELSAT 705 now!
INTELSAT 705 is classified as:


NORAD ID: 23528
Int'l Code: 1995-013A
Perigee: 36,089.0 km
Apogee: 36,235.9 km
Inclination: 5.8 °
Period: 1,455.0 minutes
Semi major axis: 42533 km
RCS: 12.1482 m2 (large)
Launch date: March 22, 1995
Source: International Telecommunications Satellite Organization (ITSO)
Launch site: AIR FORCE EASTERN TEST RANGE (AFETR)

42 C-band, 24 Ku-band; broadcasting, business services, direct-to-home TV broadcasting, telecommunications, VSATnetworks; Atlantic Ocean region.
Your satellite tracking list
Your tracking list is empty





NASA's NSSDC Master Catalog

Two Line Element Set (TLE):
1 23528U 95013A   17119.78315369 -.00000007 +00000-0 +00000-0 0  9997
2 23528 005.8273 058.0917 0017267 014.8178 152.2525 00.98970855080527
Source of the keplerian elements: AFSPC